Location: College Park
(38.9810°N, 76.9370°W)
Time: 10:05:36
(UTC-04:00)

Envisat - Pass Details

Date: 11 March 2018
Orbit: 764 x 766 km, 98.2° (Epoch: 21 June)

Event Time Altitude Azimuth Distance (km) Brightness Sun altitude
Rises 22:04:48 0° 217° (SW) 3,217 6.4 -33.7°
Reaches altitude 10° 22:08:45 10° 249° (WSW) 2,297 5.9 -34.3°
Maximum altitude 22:10:35 12° 270° (W) 2,170 5.9 -34.7°
Drops below altitude 10° 22:12:26 10° 292° (WNW) 2,303 6.3 -35.0°
Sets 22:16:26 0° 323° (NW) 3,236 7.1 -35.7°
